Location: Newark
(34.0429°S, 151.2068°E)
Time: 04:38:33
(UTC+00:00)

N. Korean satellite - Visible Passes

Search period start: 05 April 2020 00:00
Search period end: 15 April 2020 00:00
Orbit: 454 x 507 km, 97.2° (Epoch: 04 April)

Date Brightness Start Highest point End Pass type
(mag) Time Alt. Az. Time Alt. Az. Time Alt. Az.
05 Apr 9.8 18:01:22 10° ENE 18:03:19 14° ESE 18:05:18 10° SE visible
05 Apr 7.5 19:33:25 10° NNW 19:36:24 26° W 19:39:29 10° SW visible
06 Apr 9.9 08:37:20 10° SW 08:39:24 14° WSW 08:41:27 10° WNW visible
06 Apr 6.5 19:07:16 10° N 19:10:44 62° W 19:14:21 10° SSW visible
07 Apr 9.0 08:10:42 10° SSW 08:14:00 29° WSW 08:17:16 10° NW visible
07 Apr 7.4 18:41:44 10° NNE 18:45:10 52° ESE 18:48:44 10° S visible
08 Apr 9.0 18:16:50 10° NE 18:19:43 23° ESE 18:22:38 10° SSE visible
09 Apr 10.0 17:53:14 10° E 17:54:20 11° ESE 17:55:26 10° SE visible
09 Apr 7.2 19:24:01 10° NNW 19:27:17 35° W 19:30:40 10° SSW visible
10 Apr 9.7 08:27:47 10° SSW 08:30:24 18° WSW 08:33:00 10° WNW visible
10 Apr 6.5 18:58:05 10° N 19:01:38 86° WNW 19:05:20 10° SSW visible
11 Apr 8.4 08:01:27 10° S 08:04:59 38° WSW 08:08:26 10° NW visible
11 Apr 8.0 18:32:45 10° NE 18:36:06 39° ESE 18:39:34 10° S visible
12 Apr 9.4 18:08:08 10° ENE 18:10:40 18° ESE 18:13:15 10° SSE visible
12 Apr 7.9 19:41:06 10° NW 19:43:52 21° W 19:46:42 10° SW visible
13 Apr 10.1 08:45:34 10° SW 08:46:46 11° WSW 08:47:56 10° W visible
13 Apr 6.8 19:14:41 10° N 19:18:09 47° W 19:21:44 10° SSW visible
14 Apr 9.3 08:18:22 10° SSW 08:21:23 23° WSW 08:24:22 10° NW visible
14 Apr 6.8 18:48:58 10° NNE 18:52:33 70° ESE 18:56:15 10° S visible
